Weather in Hollywood

United States     26°02′29″N   80°11′33″W
В апреле 2022 года жителям России запретили посещать сайт meteo.paraplan.net по решению Генеральной прокуратуры. Аудитория сайта уменьшилась в 10 раз. Владельцы сайта не видят смысла в поддержке погодного сервера в таких условиях. Сайт будет закрыт в октябре.
temp.,
°C
wind,
m/s
gust,
m/s
humid.,
%
clouds,
%
prec.,
mm/h
press.,
hPa
HPBL,
m
4 october, tue
tue423:00+27ene446098 1.0 1014721
02:00+26nne336675 2.3 1013427
05:00+25n456923 0.4 1013476
08:00+24n46718 0.5 1014401
11:00+28n44505 0.0 10151196
14:00+30nne333954 0.0 10132133
17:00+29ene444994 0.1 10121203
20:00+28n445280 0.4 10131139
5 october, wed
wed523:00+26nne556116 0.1 1015989
02:00+26nne45670 0.1 1014843
05:00+25n34710 0.0 1014605
08:00+25n45745 0.0 1015544
11:00+28ne55578 0.1 10161259
14:00+28ene655855 0.8 10151195
17:00+28ne665866 0.8 10141294
20:00+27ne676269 0.9 10151191
6 october, thu
thu623:00+26ne676464 0.1 10161051
02:00+26ene676399 0.1 10161057
05:00+26ne566080 0.0 10161187
08:00+26ne666155 0.0 10171086
11:00+28ene665569 0.0 10181213
14:00+29ene765245 0.0 10171486
17:00+28ene775443 0.0 10161296
20:00+27ne785983 0.0 10171108
7 october, fri
fri723:00+27ene676197 0.0 1018997
02:00+26ene57646 0.0 10181041
05:00+26ne566294 0.0 10171157
08:00+26ne676397 0.0 10181060
11:00+28ne665525 0.0 10191321
14:00+29ene775124 0.0 10171477
17:00+29ne775218 0.0 10161356
20:00+27ne785920 0.0 10171155
8 october, sat
sat823:00+27ene786264 0.0 10181174
02:00+27ene576588 0.0 10171149
05:00+26ene5767100 0.0 1016887
08:00+26ne687099 0.0 1017717
11:00+29ne776235 0.1 10181091
14:00+29ene886252 2.0 10171231
17:00+28ne896357 2.4 10161231
20:00+27ne796482 2.5 10161207